Home > Weather > Binningen > Past weeks

Flag for Switzerland Weather for the Past 2 Weeks in Binningen, Basel-Land, Switzerland

Now
45 °F

Scattered clouds.


Feels Like: 42 °F
Forecast: 30 / 43 °F
Wind: 5 mph from North

Location: Bale-Mulhouse

Current Time: Feb 11, 2016 at 12:58:58 PM

Latest Report: Feb 11, 2016 at 12:00 PM


Visibility: 31 mi

Pressure: 29.82 "Hg

Humidity: 58%

Dew point: 30 °F

Location of BinningenLocation

Historic Weather in Binningen — Graph

°F

Binningen Temperature Yesterday

Maximum temperature yesterday: 43 °F (at 1:00 PM)
Minimum temperature yesterday: 36 °F (at 5:00 AM)
Average temperature yesterday: 39 °F

High & Low Weather Summary for the Past Weeks

 TemperatureHumidityPressure
High57 °F (Feb 6, 4:00 PM)98% (Jan 28, 10:00 PM)30.52 "Hg (Jan 28, 10:00 PM)
Low32 °F (Feb 11, 2:00 AM)50% (Feb 6, 4:00 PM)29.26 "Hg (Feb 9, 4:00 PM)
Average45 °F81%30.10 "Hg
* Reported Jan 27 11:00 AM — Feb 11 11:00 AM, Binningen, Weather by CustomWeather, © 2016

Note: Actual official high and low records may vary slightly from our data, if they occured in-between our weather recording intervals... More about our weather records

Advertising

Binningen Weather History for the Previous 24 Hours

 ConditionsComfort  
Time TempWeatherWind HumidityBarometerVisibility
11:00 AM
Thu, Feb 11
44 °FPassing clouds.2 mph58%29.83 "Hg25 mi
10:00 AM40 °FScattered clouds.2 mph70%29.85 "Hg25 mi
9:00 AM34 °FOvercast.2 mph91%29.85 "Hg25 mi
8:00 AM34 °FOvercast.No wind88%29.84 "Hg19 mi
7:00 AM35 °FOvercast.2 mph84%29.83 "Hg19 mi
6:00 AM35 °FOvercast.3 mph86%29.84 "Hg19 mi
5:00 AM34 °FOvercast.1 mph87%29.84 "Hg19 mi
4:00 AM33 °FOvercast.No wind89%29.84 "Hg34 mi
2:00 AM32 °FChilly.3 mph84%29.82 "Hg34 mi
1:00 AM36 °FChilly.5 mph79%29.80 "Hg37 mi
11:00 PM
Wed, Feb 10
38 °FOvercast.8 mph71%29.78 "Hg37 mi
9:00 PM38 °FPassing clouds.7 mph70%29.75 "Hg37 mi
8:00 PM37 °FPassing clouds.6 mph71%29.73 "Hg37 mi
7:00 PM40 °FPassing clouds.9 mph64%29.71 "Hg37 mi
6:00 PM41 °FOvercast.10 mph62%29.69 "Hg37 mi
5:00 PM42 °FPartly sunny.13 mph59%29.67 "Hg37 mi
4:00 PM42 °FOvercast.13 mph63%29.66 "Hg37 mi
3:00 PM43 °FOvercast.10 mph64%29.65 "Hg31 mi
2:00 PM42 °FOvercast.14 mph64%29.64 "Hg19 mi
1:00 PM43 °FOvercast.14 mph67%29.64 "Hg37 mi
12:00 PM40 °FOvercast.16 mph72%29.65 "Hg19 mi
Weather by CustomWeather, © 2016

See weather overviewHow to use our weather pages